Location: Albany
(35.0170°S, 117.8920°E)
Time: 02:26:01
(UTC+08:00)

Vanguard 1 - Pass Details

Date: 29 January 2021
Orbit: 649 x 3833 km, 34.2° (Epoch: 25 February)

Event Time Altitude Azimuth Distance (km) Brightness Sun altitude
Rises 22:56:57 0° 307° (NW) 5,826 13.9 -33.5°
Reaches altitude 10° 23:01:41 10° 313° (NW) 4,283 13.1 -33.9°
Enters shadow 23:02:20 12° 314° (NW) 4,065 13.0 -34.0°
Maximum altitude 23:11:13 43° 19° (NNE) 1,633 - -34.6°
Drops below altitude 10° 23:16:53 10° 90° (E) 2,556 - -35.0°
Sets 23:19:01 0° 97° (E) 3,304 - -35.2°
